Location: Rounton
(54.4000°N, 1.3500°W)
Time: 17:26:01
(UTC+00:00)

Tiros 1 despin weight - Pass Details

Date: 29 November 2021
Orbit: 592 x 641 km, 48.2° (Epoch: 21 January)

Event Time Altitude Azimuth Distance (km) Brightness Sun altitude
Rises 17:23:20 0° 252° (WSW) 2,822 ? -13.1°
Reaches altitude 10° 17:25:43 10° 244° (WSW) 1,922 ? -13.5°
Maximum altitude 17:29:46 37° 177° (S) 932 ? -14.0°
Enters shadow 17:32:57 15° 115° (ESE) 1,616 ? -14.5°
